Location: Arroyo de Fuente Vieja
(40.4902°N, 4.1175°W)
Time: 06:00:37
(UTC+00:00)

ATLAS CENTAUR R/B - Visible Passes

Search period start: 16 July 2024 00:00
Search period end: 26 July 2024 00:00
Orbit: 440 x 583 km, 64.7° (Epoch: 15 July)

Date Brightness Start Highest point End Pass type
(mag) Time Alt. Az. Time Alt. Az. Time Alt. Az.
16 Jul 2.3 20:47:48 10° NNW 20:51:30 34° NE 20:54:21 16° ESE visible
16 Jul 3.1 22:25:43 10° WNW 22:28:54 22° WSW 22:29:14 22° WSW visible
17 Jul 2.3 20:30:42 10° NNW 20:34:23 34° NE 20:37:50 12° ESE visible
17 Jul 3.1 22:08:35 10° WNW 22:11:48 22° WSW 22:12:44 21° SW visible
18 Jul 2.3 20:13:32 10° NNW 20:17:14 34° NE 20:21:02 10° ESE visible
18 Jul 3.2 21:51:26 10° WNW 21:54:38 23° WSW 21:56:14 18° SW visible
19 Jul 3.2 21:34:12 10° WNW 21:37:26 23° WSW 21:39:45 15° SSW visible
20 Jul 3.3 21:16:56 10° WNW 21:20:11 23° WSW 21:23:18 11° SSW visible
21 Jul 3.3 20:59:37 10° WNW 21:02:53 23° WSW 21:06:13 10° SSW visible
22 Jul 3.3 20:42:14 10° WNW 20:45:32 24° WSW 20:48:54 10° SSW visible
23 Jul 3.4 20:24:49 10° WNW 20:28:08 24° WSW 20:31:31 10° SSW visible
24 Jul 3.4 20:07:20 10° WNW 20:10:41 24° WSW 20:14:05 10° SSW visible
